CZ-2D R/B

Satellite information

Favourite Embed

Satellite Type and Status

ROCKET BODYIN ORBIT

Key statistics

Satellite CZ-2D R/B at a glance.

Uptime

4978

Days in orbit

Revolutions

≈ 14.2

Per day

Orbit

SSO

Sun Synchronous Orbit

Inclination

98.8

Latest

Satellite identification and parameters

Extended collection of information and parameters for CZ-2D R/B.

Object identification

Identified? True

Debris? False

Object name: CZ-2D R/B

International designator: 2011-068C

Object number (NORAD): 37932

Object ID (CCSDS): 37932

Country: PEOPLES REPUBLIC OF CHINA (PRC)

Current information (Y/N): Y

RCS size: LARGE

Orbital parameters

Period: 101.204 minutes

Inclination: 98.841 deg

SMA: 7193.809 km

Apoapsis: 842.093 km

Periapsis: 789.256 km

RAAN: 135.6399 deg

Eccentricy: 0.0036724

Argument of periapsis: 173.592 deg

Mean anomaly: 294.6843 deg

Mean motion: 14.22867272 rev/day

Mean motion (dot): 0.00000074 rev/day2

B* drag term: 0.000052495 1/REarth

Two-line elements (TLE)

Creation date: July 6, 2025, 6:05 p.m.

Reference frame: TEME

Reference center: EARTH

Epoch: July 6, 2025, 11 a.m. UTC

TLE line 0: 0 CZ-2D R/B

TLE line 1: 1 37932U 11068C 25187.45880531 .00000074 00000-0 52495-4 0 9997

TLE line 2: 2 37932 98.8410 135.6399 0036724 173.5920 294.6843 14.22867272707316

Live tracking on map

Real-time ground track for satellite CZ-2D R/B.

In-orbit conjunctions

A list of the most updated potential collisions computed for object CZ-2D R/B.

Target Orbit TCA Probability of collision Miss distance Type
COSMOS 1275 DEB LEO 2025-01-28 00:39:28 0.0005211118 109.0 (m) DEBRIS
FENGYUN 1C DEB SSO 2024-12-02 11:47:17 0.0001979547 349.0 (m) DEBRIS
FENGYUN 1C DEB SSO 2024-11-14 18:25:24 0.0001425296 380.0 (m) DEBRIS
CZ-6A DEB LEO 2024-10-17 06:00:22 0.0001006546 921.0 (m) DEBRIS
METEOR 2-5 DEB LEO 2024-10-05 12:03:41 0.0002090186 78.0 (m) DEBRIS

Associated space launch

CZ-2D R/B was lifted into orbit during the mission ‘Long March 2D | Shiyan Weixing 4 & Chuang Xin 1C’, on board a Long March 2D space rocket.

The launch took place on Nov. 20, 2011, 12:15 a.m. from Launch Area 4 (SLS-2 / 603).

For more information about the launch, click the button.

Launch to space Long March 2D | Shiyan Weixing 4 & Chuang Xin 1C
Long March 2D | Shiyan Weixing 4 & Chuang Xin 1C

Agency: N/A

Status: Launch Successful

Launch date: Nov. 20, 2011, 12:15 a.m. UTC

Rocket: Long March 2D

Launch pad: Launch Area 4 (SLS-2 / 603)

Location: Jiuquan Satellite Launch Center, People's Republic of China

...

Latest news about this satellite

There are no fresh news available about this satellite. Check back as we update our databases every day.


Newsletter sign-up

Weekly statistics, charts and insights to help you stay on top of the space industry.